Location: Newark
(25.0000°N, 73.5000°E)
Time: 10:22:59
(UTC+00:00)

N. Korean satellite - Visible Passes

Search period start: 16 December 2019 00:00
Search period end: 26 December 2019 00:00
Orbit: 455 x 507 km, 97.2° (Epoch: 15 December)

Date Brightness Start Highest point End Pass type
(mag) Time Alt. Az. Time Alt. Az. Time Alt. Az.
16 Dec 6.4 00:58:56 10° N 01:02:19 58° WNW 01:05:40 10° SSW visible
16 Dec 9.4 12:59:27 10° SSW 13:02:26 23° W 13:05:25 10° NW visible
17 Dec 7.4 00:33:34 10° NNE 00:36:55 49° E 00:40:13 10° S visible
18 Dec 9.3 00:08:54 10° NE 00:11:26 19° E 00:13:56 10° SE visible
19 Dec 7.3 01:16:15 10° NNW 01:19:16 29° WNW 01:22:17 10° SW visible
19 Dec 10.0 13:17:46 10° SW 13:19:32 13° W 13:21:18 10° WNW visible
20 Dec 6.3 00:50:29 10° N 00:53:55 82° W 00:57:18 10° SSW visible
20 Dec 8.9 12:50:47 10° SSW 12:54:03 30° W 12:57:17 10° NW visible
21 Dec 8.2 00:25:18 10° NNE 00:28:28 35° E 00:31:38 10° SSE visible
22 Dec 9.7 00:01:01 10° ENE 00:02:58 14° E 00:04:55 10° SE visible
23 Dec 6.8 01:07:39 10° N 01:10:52 40° WNW 01:14:05 10° SSW visible
23 Dec 9.8 13:08:41 10° SW 13:11:07 17° W 13:13:31 10° NW visible
24 Dec 6.7 00:42:04 10° NNE 00:45:29 72° E 00:48:52 10° S visible
24 Dec 8.3 12:42:11 10° S 12:45:38 39° W 12:49:02 10° NNW visible
25 Dec 8.8 00:17:06 10° NE 00:20:01 26° E 00:22:55 10° SSE visible
25 Dec 10.0 23:53:33 10° E 23:54:29 11° E 23:55:25 10° ESE visible
